Location: Leyton
(51.5667°N, 0.0167°W)
Time: 07:30:47
(UTC+00:00)

Daily predictions for brighter satellites

Satellite Brightness Start Highest point End
(mag) Time Altitude Azimuth Time Altitude Azimuth Time Altitude Azimuth
Cosmos 1606 Rocket 4.1 17:09:33 10° SSE 17:13:35 37° E 17:17:39 10° NNE
CZ-4B R/B 3.4 17:12:06 10° SSE 17:17:42 83° WSW 17:23:15 10° NNW
Cosmos 1689 Rocket 3.9 17:18:37 10° ENE 17:20:10 13° E 17:21:42 10° SE
Cosmos 2098 Rocket 4.3 17:17:27 10° NNW 17:20:18 32° W 17:22:56 10° SSW
Okean-O 3.6 17:16:41 10° ESE 17:20:21 26° ENE 17:24:02 10° N
Cosmos 1656 Rocket 4.3 17:16:00 10° SW 17:21:31 58° NW 17:27:07 10° NNE
AQUARIUS 4.2 17:17:44 10° SSE 17:22:15 88° ENE 17:26:47 10° NNW
NOSS 2-2 (E) 4.5 17:17:10 10° NW 17:22:30 85° NE 17:29:59 10° SE
Cosmos 1400 Rocket 4.0 17:22:01 10° SE 17:25:19 24° E 17:28:37 10° NE
Meteor 1-16 Rocket 4.4 17:20:35 10° SSW 17:26:12 78° WNW 17:31:40 10° N
Cosmos 2227 Rocket 2.4 17:21:33 10° NNW 17:27:03 49° NE 17:32:32 10° SE
Cosmos 1908 3.4 17:23:17 10° SSW 17:27:08 76° W 17:31:02 10° N
Cosmos 2266 Rocket 4.3 17:21:18 10° NNW 17:27:30 74° W 17:33:47 10° S
Cosmos 2058 4.2 17:25:00 10° NNE 17:28:02 20° ENE 17:31:03 10° ESE
Meteor 2-16 Rocket 4.5 17:22:18 10° N 17:28:21 61° ENE 17:34:22 10° SSE
H-2A R/B 3.3 17:24:11 10° ESE 17:28:24 24° ENE 17:32:37 10° N
Cosmos 1892 3.8 17:26:17 10° NNE 17:29:31 24° ENE 17:32:43 10° SE
GEOS 3 Rocket 4.2 17:25:34 10° E 17:30:34 42° NNE 17:35:39 10° NW
CZ-4 R/B 2.3 17:27:23 10° ESE 17:30:35 25° ENE 17:33:45 10° N
Cosmos 2263 Rocket 3.8 17:28:08 10° NNW 17:31:58 18° NNE 17:35:34 11° ENE
Cosmos 1408 4.0 17:31:04 10° NNE 17:33:39 18° ENE 17:36:13 10° ESE
Cosmos 1356 Rocket 4.3 17:29:42 10° SSW 17:33:54 54° WNW 17:38:09 10° N
BREEZE-M DEB (TANK) 4.0 17:30:26 10° WSW 17:33:59 85° SSE 17:46:14 11° ENE
BREEZE-M R/B 4.3 17:22:44 10° WSW 17:34:18 68° S 17:37:09 12° E
CZ-4C R/B 4.4 17:31:24 10° N 17:34:27 38° WNW 17:37:34 10° SW
NOSS 3-4 (A) 4.4 17:31:58 10° NW 17:38:05 38° NNE 17:44:11 12° E
NOSS 3-4 (C) 4.4 17:32:05 10° NW 17:38:11 38° NNE 17:44:15 12° E
CZ-4C R/B 3.7 17:33:00 10° NW 17:38:27 30° N 17:44:25 11° ENE
NOSS 2-2 (D) 4.5 17:34:49 10° NW 17:40:05 89° SW 17:47:27 10° SE
Cosmos 1953 Rocket 3.5 17:36:06 10° N 17:40:32 76° ENE 17:44:59 10° SSE
Cosmos 1300 2.7 17:39:50 10° S 17:43:34 56° E 17:47:20 10° NNE
SL-4 R/B 1.6 17:42:43 10° W 17:46:14 87° N 17:49:04 17° E
Cosmos 2058 Rocket 3.5 17:42:43 10° SSE 17:46:56 41° E 17:51:12 10° NNE
Cosmos 1697 Rocket 4.0 17:43:14 10° SE 17:46:57 18° E 17:49:37 13° ENE
Cosmos 1331 Rocket 3.9 17:42:10 10° SSW 17:47:19 75° ESE 17:52:29 10° NNE
Cosmos 1346 Rocket 3.6 17:44:52 10° N 17:48:26 30° ENE 17:51:58 10° SE
IRS-1C Rocket 4.0 17:44:05 10° SSE 17:49:19 71° ENE 17:54:36 10° NNW
CZ-2D R/B 3.4 17:45:44 10° SE 17:49:24 47° ENE 17:53:04 10° N
USA 305 2.9 17:45:40 10° WNW 17:50:00 80° NNE 17:53:27 16° ESE
SeaSat 1 3.4 17:46:27 13° E 17:50:03 29° NE 17:54:18 10° NNW
Cosmos 1825 3.6 17:47:51 10° NNE 17:50:38 19° ENE 17:51:37 17° E
Cosmos 44 3.3 17:50:10 10° SSW 17:54:37 59° SE 17:59:05 12° NE
USA 306 2.9 17:52:05 10° WNW 17:56:24 84° NNE 17:59:35 18° ESE
Cosmos 1315 Rocket 4.2 17:53:48 10° SE 17:56:20 18° E 17:56:20 18° E
NOAA 11 4.4 17:51:24 10° S 17:56:51 76° WSW 18:02:19 10° NNW
USA 215 3.6 17:51:39 14° E 17:57:09 57° N 18:03:32 10° WNW
SAR-Lupe-4 3.5 17:54:54 10° NNE 17:58:28 61° ESE 18:02:01 10° S
ERS-2 2.3 17:54:56 10° NNE 17:58:36 75° WNW 18:02:13 10° SSW
BREEZE-M R/B 3.4 17:56:35 10° W 18:00:10 73° S 18:05:18 17° E
ATLAS 2AS CENTAUR R/B 3.5 17:52:55 10° NW 18:00:12 41° NNE 18:05:16 18° E
Cosmos 968 Rocket 3.4 17:57:25 10° NNW 18:02:39 66° ENE 18:07:48 10° SE
Cosmos 1340 2.5 17:59:41 10° N 18:03:29 78° ENE 18:07:16 10° SSE
Cosmos 2297 Rocket 2.3 18:01:21 10° NNW 18:07:04 83° WSW 18:12:44 10° SSE
COSMO-SKYMED 1 2.5 18:02:55 10° NNE 18:07:15 61° ESE 18:11:33 10° S
HJ-1C 4.4 18:07:27 25° ENE 18:07:30 25° ENE 18:10:21 10° N
MOS 1 Rocket 4.2 18:03:53 10° NE 18:07:48 26° E 18:11:53 10° SSE
Cosmos 2369 Rocket 4.2 18:03:23 10° W 18:07:55 24° NW 18:12:28 10° NNE
Cosmos 1076 Rocket 4.1 18:04:36 10° N 18:08:30 34° ENE 18:11:35 15° SE
H-2A R/B 3.9 18:05:10 10° N 18:08:52 31° WNW 18:12:31 10° SW
In-Cosmos 22 Rocket 4.0 18:04:13 10° N 18:09:35 81° ENE 18:15:03 10° SSE
Cosmos 1980 Rocket 4.0 18:06:40 10° SE 18:07:19 12° SE 18:07:19 12° SE
Aureole 3 Rocket 3.2 18:08:22 10° S 18:12:28 70° E 18:18:14 10° NNE
Cosmos 1110 Rocket 4.4 18:10:51 10° SW 18:16:03 64° WNW 18:21:16 10° NNE
SAR-Lupe-1 4.0 18:12:45 10° NNE 18:16:23 89° WSW 18:19:57 10° SSW
S3M 4.2 18:10:49 10° SSE 18:16:35 46° E 18:22:25 10° NNE
CSL-04 Debris 4.3 18:11:36 10° SE 18:16:51 52° ENE 18:22:10 10° N
Cosmos 1302 Rocket 3.9 18:13:04 10° SSW 18:18:18 73° ESE 18:23:37 10° NNE
SL-08 ROCKET BODY 4.4 18:13:09 10° N 18:19:16 71° ENE 18:25:25 10° SSE
Lacrosse 5 2.5 18:15:54 10° WNW 18:20:47 45° N 18:23:30 24° ENE
FALCON 9 DEB 3.1 18:17:37 10° WNW 18:21:03 75° N 18:22:07 41° E
FALCON 9 DEB 3.3 18:19:49 10° SW 18:22:56 49° SSE 18:23:30 42° ESE
ERBS 3.5 18:20:05 10° WNW 18:23:07 31° N 18:24:02 26° NNE
Cosmos 1486 Rocket 4.1 18:17:47 10° NNW 18:23:10 86° WSW 18:28:30 10° SSE
Okean O Rocket 4.2 18:19:47 10° SSW 18:23:17 23° W 18:26:48 10° NW
Cosmos 292 Rocket 4.0 18:18:41 10° SSW 18:23:29 73° WNW 18:28:21 10° NNE
YAOGAN 1 2.4 18:20:09 10° SSE 18:24:28 74° ENE 18:28:49 10° N
Aureole 3 2.7 18:23:03 10° SSW 18:26:07 77° W 18:29:06 10° N
FALCON 9 DEB 3.1 18:23:59 10° SW 18:27:07 53° SSE 18:27:30 49° SE
Cosmos 1417 Rocket 4.4 18:21:25 10° S 18:27:36 67° E 18:33:53 10° NNE
Cosmos 1812 Rocket 4.2 18:27:22 10° SSE 18:35:45 - NNE 18:30:37 33° ESE
Cosmos 1455 2.8 18:28:30 10° SSE 18:31:13 35° SE 18:31:13 35° SE
Meteor 2-8 Rocket 4.4 18:26:15 10° S 18:32:23 90° NW 18:38:35 10° N
Cosmos 1503 Rocket 3.9 18:27:46 10° NNW 18:33:00 71° ENE 18:37:11 16° SE
CZ-2C R/B 3.2 18:28:51 10° SSE 18:34:38 85° ENE 18:40:17 10° NNW
CZ-4B R/B 3.5 18:34:19 10° N 18:37:06 26° WNW 18:39:49 10° SW
Cosmos 2219 4.1 18:31:45 10° NW 18:37:18 50° WSW 18:42:49 10° S
FALCON 9 DEB 3.0 18:35:59 10° WSW 18:39:10 60° SSE 18:39:10 60° SSE
USA 307 3.0 18:35:04 10° WNW 18:39:21 69° SSW 18:40:52 38° SE
Cosmos 1939 Rocket 4.4 18:37:42 10° SSW 18:41:23 37° W 18:45:03 10° NNW
Geosat FO 4.5 18:41:07 44° SE 18:42:11 83° ENE 18:45:42 10° NNW
USA 308 3.1 18:39:55 10° WNW 18:44:10 65° SSW 18:45:31 40° SE
Cosmos 1354 Rocket 3.9 18:39:17 10° NNW 18:44:34 77° ENE 18:47:53 23° SSE
Meteor 2-10 Rocket 3.4 18:40:13 10° S 18:45:28 71° E 18:50:35 10° NNE
Cosmos 1553 Rocket 4.0 18:39:42 10° S 18:46:04 86° WNW 18:52:22 10° N
Cosmos 2082 3.7 18:40:22 10° NNW 18:46:09 87° WSW 18:50:45 16° SSE
Helios 1A Rocket 4.1 18:44:51 10° S 18:48:48 45° W 18:52:46 10° NNW
FALCON 9 DEB 3.3 18:47:33 10° WSW 18:50:17 58° SW 18:50:17 58° SW
Cosmos 1689 Rocket 3.6 18:48:48 10° N 18:51:30 35° WNW 18:54:10 10° SW
ATLAS 5 CENTAUR R/B 3.6 18:49:06 10° NW 18:52:47 22° N 18:55:00 17° NNE
Meteor 2-15 Rocket 4.3 18:47:48 10° S 18:53:56 73° E 19:00:04 10° NNE
Okean-O 3.7 18:52:21 10° S 18:56:37 46° W 19:00:55 10° NNW
Cosmos 2151 3.7 18:53:06 10° N 18:56:04 38° NNE 18:56:04 38° NNE
Cosmos 1992 Rocket 3.9 18:52:10 10° S 18:57:19 66° ESE 18:59:48 31° NE
ARGOS 3.0 18:54:41 20° SSE 18:58:29 76° ENE 19:03:57 10° NNW
SL-08 RB Rocket 3.8 19:00:38 55° NE 19:00:38 55° NE 19:04:43 10° N
Cosmos 1400 Rocket 4.3 18:57:45 10° SW 19:01:37 38° WNW 19:05:28 10° N
Cosmos 2369 3.7 18:56:40 10° S 19:02:13 54° ESE 19:03:11 48° ENE
Cosmos 2058 3.7 19:01:15 10° NNW 19:05:14 49° W 19:09:11 10° S
Cosmos 1892 4.4 19:01:44 10° NNW 19:05:17 34° W 19:08:48 10° SSW
Cosmos 1656 3.8 18:59:44 10° SW 19:05:20 77° WNW 19:10:04 15° NNE
Cosmos 1844 Rocket 4.3 19:01:19 10° NNW 19:05:18 19° NNE 19:05:18 19° NNE
CZ-4 R/B 2.8 19:01:53 10° SSW 19:05:29 36° W 19:09:05 10° NNW
H-2A R/B 2.3 19:01:53 10° S 19:07:18 74° WSW 19:12:48 10° NNW
Ariane Rocket 3.2 19:07:50 49° NE 19:07:50 49° NE 19:12:23 10° N
Geosat 3.9 19:06:43 53° ENE 19:07:45 68° ESE 19:12:45 10° SSW
GEOS 3 Rocket 4.0 19:05:41 29° SSE 19:08:27 64° SW 19:13:50 10° NW
Cosmos 1408 3.7 19:05:24 10° NNW 19:08:52 43° W 19:11:40 15° SSW
Cosmos 1745 Rocket 4.4 19:02:44 10° NNW 19:08:56 63° W 19:15:11 10° S
Cosmos 220 Rocket 3.9 19:06:14 10° SSW 19:10:37 90° SE 19:10:52 79° NNE
Cosmos 2227 Rocket 3.6 19:05:52 10° NW 19:11:00 36° WSW 19:16:06 10° S
CSL-04 Rocket 4.1 19:11:08 10° S 19:16:38 63° WSW 19:22:07 10° NNW
Cosmos 2263 Rocket 2.3 19:11:34 10° NNW 19:17:11 56° NE 19:17:16 56° ENE
Timation 1 Rocket 4.4 19:12:06 10° NW 19:18:08 77° WSW 19:20:34 38° SSE
Meteor 2-1 Rocket 4.4 19:19:43 10° SSW 19:25:12 68° WNW 19:30:45 10° N
SL-4 R/B 3.0 19:22:11 10° W 19:24:39 39° W 19:24:39 39° W
Cosmos 1825 3.2 19:22:45 10° NNW 19:26:22 43° W 19:26:28 43° W
SeaSat 1 2.7 19:26:15 52° S 19:27:17 66° WSW 19:32:14 10° NW
CZ-4C R/B 3.1 19:21:54 10° NW 19:28:27 52° NNE 19:29:36 48° ENE
USA 305 4.1 19:25:51 10° WNW 19:29:36 36° SW 19:29:36 36° SW
NOSS 3-4 (A) 3.7 19:22:57 10° NW 19:29:50 86° NE 19:31:39 56° SE
NOSS 3-4 (C) 3.7 19:23:03 10° NW 19:29:56 86° NE 19:31:43 56° SE
Cosmos 1697 Rocket 2.6 19:24:33 10° SSW 19:30:10 87° WNW 19:31:25 57° NNE
Cosmos 2184 Rocket 4.4 19:25:57 10° N 19:31:04 47° NE 19:31:04 47° NE
Cosmos 1315 Rocket 3.9 19:28:57 10° SSW 19:32:10 43° WSW 19:32:10 43° WSW
USA 306 4.3 19:32:18 10° WNW 19:35:44 33° SW 19:35:44 33° SW
DEBRIS 4.1 19:21:11 10° WSW 19:36:24 63° SSE 19:36:49 61° SSE
Cosmos 1709 Rocket 4.3 19:32:25 10° NNW 19:38:44 65° W 19:44:29 13° S
USA 215 3.1 19:39:00 68° ESE 19:39:57 86° NNE 19:46:32 10° WNW
NOSS 3-3 (A) 3.8 19:35:17 10° SW 19:41:12 87° SE 19:41:47 76° ENE
NOSS 3-3 (C) 3.8 19:35:23 10° SW 19:41:21 86° SE 19:41:53 76° ENE
SJ 16-02 3.6 19:40:03 10° N 19:41:07 16° N 19:41:07 16° N
MOS 1 Rocket 4.2 19:41:49 10° N 19:46:15 48° WNW 19:50:56 10° SW
Cosmos 1777 Rocket 4.4 19:46:43 10° NNW 19:51:06 60° NW 19:51:06 60° NW
ATLAS 2AS CENTAUR R/B 2.6 19:44:24 10° NW 19:52:03 89° SW 19:52:43 76° SE
Cosmos 2074 Rocket 4.3 19:46:08 10° N 19:51:03 55° NNE 19:51:03 55° NNE
Cosmos 1980 Rocket 3.8 19:47:14 10° SSW 19:49:11 23° SSW 19:49:11 23° SSW
IRS-1A Rocket 4.3 19:53:26 73° WNW 19:53:26 73° WNW 19:58:44 10° NNW
Meteor 2-17 Rocket 4.4 19:49:26 10° NNW 19:55:02 76° NNW 19:55:02 76° NNW
COSMOS 2455 4.2 19:50:50 10° NNW 19:55:08 27° NNE 19:55:08 27° NNE
Resurs 01 Rocket 4.3 20:02:02 12° N 20:02:02 12° N 20:02:24 10° N
MOS 1 4.5 20:00:46 68° WNW 20:00:46 68° WNW 20:05:54 10° NNW
Cosmos 2315 Rocket 4.2 19:55:15 10° SSW 20:01:24 66° WNW 20:07:36 10° N
Lacrosse 5 3.0 19:59:17 10° WNW 20:02:41 41° NW 20:02:41 41° NW
Meteor 2-3 Rocket 4.4 20:12:15 10° NNW 20:17:02 52° WNW 20:17:02 52° WNW
Cosmos 2278 Rocket 4.4 20:33:46 10° NNW 20:35:28 16° N 20:35:28 16° N
ATLAS 5 CENTAUR R/B 4.1 20:34:32 10° NW 20:36:32 20° NNW 20:36:32 20° NNW
Cosmos 2263 Rocket 4.1 20:55:54 10° NW 20:58:58 26° WNW 20:58:58 26° WNW
CZ-4C R/B 3.9 21:10:23 10° NW 21:14:46 41° WNW 21:14:46 41° WNW
